Location: Munkebjergskolens Observatorium
(55.3864°N, 10.3987°E)
Time: 23:06:46
(UTC+01:00)

Envisat - Pass Details

Date: 29 November 2022
Orbit: 763 x 765 km, 98.2° (Epoch: 01 February)

Event Time Altitude Azimuth Distance (km) Brightness Sun altitude
Rises 06:06:09 0° 11° (N) 3,249 6.2 -17.6°
Reaches altitude 10° 06:08:41 10° 1° (N) 2,318 5.4 -17.2°
Maximum altitude 06:13:04 30° 302° (WNW) 1,359 3.7 -16.6°
Enters shadow 06:14:09 27° 279° (W) 1,434 3.8 -16.5°
